Content
SEND FEEDBACK

Daily
Averages
Monthly
Summary
United States of America

JAMESTOWN, NEW YORK


Home > North America > United States > New York
Elevation: 1725 feet     Latitude: 42 09N     Longitude: 079 15W

WEATHER
 
SELECT A DAY
Number of Records: 343,708;   Date Range: 1/1/95 - 7/23/14
 
SHARE

PRINT THIS DATA

[ ← Previous Day ]
WEATHER ALMANAC - FEBRUARY 12, 2013
[ Next Day → ]
[ °C ]   °F
Weather ElementAverageHighLow
Temperature27 °F28.4 °F (12:35 am)24.8 °F (11:15 pm)
Dewpoint20.8 °F23 °F (12:35 am)19.4 °F (7:35 am)
Humidity77.5 %86 % (10:15 am)74 % (12:55 am)
Barometer29.90 in29.96 in (11:55 am)29.79 in (12:35 am)
Wind Speed13.7 mph25.3 mph (3:35 am)
Wind Gust34.5 mph (3:35 am)
Weather ElementAverage
Visibility7.9 mi
Wind DirectionWSW (252.7 °)

Weather ElementTotal
Precipitation---
Heating Degree Days38.4 (Base 65)
Averaged from 71 records on February 12, 2013
WEATHER CONDITIONS BREAKOUT
WIND DIRECTION BREAKOUT
WEATHER BY HOUR - FEBRUARY 12, 2013
[ °C ]   °F
Local TimeTemperatureDewpointHumidityBarometerVisibilityWind DirectionWind SpeedGust SpeedPrecipitationEventsConditions
12:35 AM28.4 °F23.0 °F80 %29.79 in7.0 miWSW (250°)23.0 mph31.1 mphOvercast
12:55 AM28.4 °F21.2 °F74 %29.80 in10.0 miWSW (250°)16.1 mphOvercast
1:15 AM28.4 °F21.2 °F74 %29.81 in6.0 miWest (260°)16.1 mph27.6 mphOvercast
1:35 AM28.4 °F21.2 °F74 %29.81 in6.0 miWSW (250°)18.4 mph33.4 mphOvercast
1:55 AM28.4 °F21.2 °F74 %29.82 in8.0 miWSW (250°)20.7 mph29.9 mphOvercast
2:15 AM28.4 °F21.2 °F74 %29.83 in5.0 miWest (260°)20.7 mph32.2 mphOvercast
2:35 AM28.4 °F21.2 °F74 %29.84 in5.0 miWest (260°)19.6 mph26.5 mphOvercast
2:55 AM28.4 °F21.2 °F74 %29.84 in8.0 miWest (260°)18.4 mph25.3 mphOvercast
3:15 AM28.4 °F21.2 °F74 %29.84 in9.0 miWSW (250°)21.9 mph29.9 mphOvercast
3:35 AM28.4 °F21.2 °F74 %29.84 in7.0 miWest (260°)25.3 mph34.5 mphOvercast
3:55 AM28.4 °F21.2 °F74 %29.85 in9.0 miWest (260°)18.4 mph31.1 mphOvercast
4:15 AM28.4 °F21.2 °F74 %29.85 in8.0 miWest (260°)21.9 mph27.6 mphOvercast
4:35 AM28.4 °F21.2 °F74 %29.86 in8.0 miWest (260°)16.1 mph27.6 mphOvercast
4:55 AM28.4 °F21.2 °F74 %29.87 in9.0 miWest (260°)21.9 mph28.8 mphOvercast
5:15 AM28.4 °F21.2 °F74 %29.87 in7.0 miWest (260°)18.4 mph25.3 mphOvercast
5:35 AM28.4 °F21.2 °F74 %29.87 in5.0 miWest (260°)20.7 mph26.5 mphOvercast
5:55 AM28.4 °F21.2 °F74 %29.88 in4.0 miWest (260°)25.3 mph34.5 mphOvercast
6:15 AM28.4 °F21.2 °F74 %29.89 in9.0 miWest (270°)19.6 mph32.2 mphOvercast
6:35 AM26.6 °F21.2 °F80 %29.89 in8.0 miWest (260°)17.3 mph28.8 mphOvercast
6:55 AM26.6 °F21.2 °F80 %29.90 in10.0 miWest (260°)16.1 mph24.2 mphOvercast
7:15 AM26.6 °F21.2 °F80 %29.90 in10.0 miWest (260°)19.6 mph27.6 mphOvercast
7:35 AM26.6 °F19.4 °F74 %29.91 in10.0 miWest (260°)19.6 mph29.9 mphOvercast
7:55 AM26.6 °F19.4 °F74 %29.92 in10.0 miWest (260°)15.0 mph20.7 mphOvercast
8:15 AM26.6 °F19.4 °F74 %29.92 in9.0 miWest (270°)12.7 mphOvercast
8:35 AM26.6 °F21.2 °F80 %29.93 in5.0 miWest (260°)16.1 mph21.9 mphOvercast
8:55 AM26.6 °F21.2 °F80 %29.93 in3.0 miWest (260°)10.4 mphOvercast
9:15 AM26.6 °F21.2 °F80 %29.93 in3.0 miWest (260°)13.8 mphOvercast
9:35 AM26.6 °F21.2 °F80 %29.94 in2.5 miWest (270°)12.7 mph18.4 mphOvercast
9:55 AM26.6 °F21.2 °F80 %29.94 in2.5 miWest (260°)9.2 mph16.1 mphOvercast
10:15 AM26.6 °F23.0 °F86 %29.94 in2.5 miWest (260°)12.7 mph18.4 mphOvercast
10:35 AM26.6 °F21.2 °F80 %29.95 in3.0 miWest (260°)18.4 mph26.5 mphOvercast
10:55 AM26.6 °F21.2 °F80 %29.94 in3.0 miWSW (250°)13.8 mphOvercast
11:15 AM26.6 °F21.2 °F80 %29.95 in1.5 miWest (280°)12.7 mph21.9 mphOvercast
11:35 AM26.6 °F21.2 °F80 %29.95 in4.0 miWest (260°)17.3 mph20.7 mphOvercast
11:55 AM26.6 °F21.2 °F80 %29.96 in5.0 miWest (270°)19.6 mph24.2 mphOvercast
12:15 PM26.6 °F19.4 °F74 %29.96 in8.0 miWest (260°)13.8 mph20.7 mphOvercast
12:35 PM26.6 °F19.4 °F74 %29.95 in6.0 miWest (270°)13.8 mph21.9 mphOvercast
12:55 PM26.6 °F19.4 °F74 %29.94 in10.0 miWest (260°)16.1 mphOvercast
1:15 PM26.6 °F21.2 °F80 %29.92 in10.0 miWSW (250°)10.4 mph16.1 mphOvercast
1:35 PM26.6 °F19.4 °F74 %29.93 in10.0 miWest (260°)12.7 mphOvercast
1:55 PM26.6 °F21.2 °F80 %29.93 in7.0 miWest (260°)17.3 mph23.0 mphOvercast
2:15 PM26.6 °F21.2 °F80 %29.92 in10.0 miWest (260°)15.0 mph20.7 mphOvercast
2:35 PM26.6 °F21.2 °F80 %29.91 in10.0 miWest (260°)15.0 mph20.7 mphOvercast
2:55 PM26.6 °F19.4 °F74 %29.89 in10.0 miWNW (290°)11.5 mph19.6 mphOvercast
3:15 PM26.6 °F21.2 °F80 %29.89 in6.0 miWNW (290°)17.3 mphOvercast
3:35 PM26.6 °F21.2 °F80 %29.90 in7.0 miWNW (290°)11.5 mph17.3 mphOvercast
3:55 PM26.6 °F19.4 °F74 %29.90 in7.0 miWest (280°)12.7 mphOvercast
4:15 PM26.6 °F19.4 °F74 %29.90 in10.0 miWest (270°)8.1 mphOvercast
4:35 PM26.6 °F21.2 °F80 %29.92 in10.0 miWest (270°)15.0 mphOvercast
4:55 PM26.6 °F19.4 °F74 %29.93 in10.0 miWest (270°)17.3 mph25.3 mphOvercast
5:15 PM26.6 °F19.4 °F74 %29.93 in10.0 miWSW (250°)18.4 mph24.2 mphOvercast
5:35 PM26.6 °F19.4 °F74 %29.94 in10.0 miWest (260°)16.1 mph24.2 mphOvercast
5:55 PM26.6 °F21.2 °F80 %29.94 in10.0 miWest (270°)10.4 mphOvercast
6:15 PM26.6 °F21.2 °F80 %29.95 in10.0 miWest (260°)9.2 mphOvercast
6:35 PM26.6 °F21.2 °F80 %29.95 in10.0 miWest (260°)11.5 mphOvercast
6:55 PM26.6 °F21.2 °F80 %29.95 in10.0 miWSW (250°)10.4 mphOvercast
7:15 PM26.6 °F21.2 °F80 %29.95 in10.0 miSW (230°)9.2 mphOvercast
7:35 PM26.6 °F21.2 °F80 %29.94 in10.0 miSW (230°)6.9 mphOvercast
7:55 PM26.6 °F21.2 °F80 %29.94 in10.0 miWSW (240°)8.1 mphOvercast
8:15 PM26.6 °F21.2 °F80 %29.93 in10.0 miWSW (240°)4.6 mphOvercast
8:35 PM26.6 °F21.2 °F80 %29.92 in10.0 miNW (310°)3.5 mphOvercast
8:55 PM26.6 °F21.2 °F80 %29.93 in10.0 miWSW (240°)4.6 mphOvercast
9:15 PM26.6 °F21.2 °F80 %29.91 in10.0 miWest (270°)4.6 mphOvercast
9:35 PM26.6 °F21.2 °F80 %29.90 in10.0 miCalmOvercast
9:55 PM26.6 °F21.2 °F80 %29.90 in10.0 miWest (260°)4.6 mphOvercast
10:15 PM26.6 °F19.4 °F74 %29.89 in10.0 miWSW (250°)5.8 mphOvercast
10:35 PM26.6 °F21.2 °F80 %29.88 in10.0 miWest (270°)3.5 mphOvercast
10:55 PM26.6 °F19.4 °F74 %29.88 in10.0 miWest (270°)4.6 mphOvercast
11:15 PM24.8 °F19.4 °F80 %29.88 in10.0 miSW (230°)3.5 mphOvercast
11:35 PM24.8 °F21.2 °F86 %29.87 in10.0 miSSW (210°)4.6 mphOvercast
11:55 PM24.8 °F21.2 °F86 %29.87 in10.0 miCalmOvercast
Hourly data recorded from KJHW, located miles away from Jamestown, New York







STORIES FROM OUR PARTNERS